Home   Weather   Palo Alto   Past weeks
Flag for USA

Past Weather in Palo Alto, California, USA — Yesterday and Last 2 Weeks

Now
51 °F

Mostly cloudy.


Feels Like: 51 °F
Forecast: 72 / 49 °F
Wind: 3 mph from Southeast

Location: San Jose International Airport

Current Time: Oct 15, 2019 at 7:24:55 am

Latest Report: Oct 15, 2019 at 5:53 am


Visibility: 10 mi

Pressure: 30.06 "Hg

Humidity: 89%

Dew Point: 48 °F

Location of Palo AltoLocation

Past Weather in Palo Alto — Graph

°F

Palo Alto Temperature Yesterday

Maximum temperature yesterday: 74 °F (at 1:53 pm)
Minimum temperature yesterday: 47 °F (at 4:53 am)
Average temperature yesterday: 59 °F

High & Low Weather Summary for the Past Weeks

 TemperatureHumidityPressure
High87 °F (Oct 7, 3:53 pm)93% (Oct 14, 10:53 pm)30.15 "Hg (Oct 14, 10:53 pm)
Low47 °F (Oct 1, 4:53 am)15% (Oct 10, 10:53 am)29.81 "Hg (Oct 8, 5:53 pm)
Average63 °F53%29.97 "Hg
* Reported Sep 30 5:53 am — Oct 15 5:53 am, Palo Alto. Weather by CustomWeather, © 2019

Note: Actual official high and low records may vary slightly from our data, if they occured in-between our weather recording intervals... More about our weather records

Advertising

Palo Alto Weather History for the Previous 24 Hours

Scroll right to see more
 ConditionsComfort  
Time TempWeatherWind HumidityBarometerVisibility
5:53 am
Tue, Oct 15
51 °FMostly cloudy.3 mph89%30.06 "Hg10 mi
5:31 am51 °FMostly cloudy.3 mph92%30.06 "Hg10 mi
4:53 am51 °FOvercast.3 mph89%30.05 "Hg10 mi
4:37 am49 °FPassing clouds.3 mph90%30.05 "Hg10 mi
3:53 am51 °FClear.3 mph92%30.04 "Hg10 mi
2:53 am51 °FClear.3 mph92%30.03 "Hg10 mi
1:53 am54 °FClear.No wind93%30.04 "Hg10 mi
12:53 am55 °FClear.No wind93%30.03 "Hg10 mi
11:53 pm
Mon, Oct 14
55 °FPassing clouds.6 mph93%30.03 "Hg10 mi
10:53 pm56 °FClear.No wind93%30.03 "Hg10 mi
9:53 pm57 °FClear.5 mph90%30.02 "Hg10 mi
8:53 pm58 °FClear.5 mph87%30.00 "Hg10 mi
7:53 pm60 °FClear.6 mph83%29.99 "Hg10 mi
6:53 pm62 °FClear.8 mph78%29.96 "Hg10 mi
5:53 pm66 °FSunny.9 mph65%29.95 "Hg10 mi
4:53 pm71 °FPassing clouds.9 mph38%29.95 "Hg10 mi
3:53 pm73 °FPassing clouds.9 mph36%29.94 "Hg10 mi
2:53 pm73 °FPassing clouds.9 mph28%29.93 "Hg10 mi
1:53 pm74 °FPassing clouds.5 mph31%29.94 "Hg10 mi
12:53 pm70 °FPassing clouds.5 mph38%29.96 "Hg10 mi
11:53 am66 °FPassing clouds.3 mph40%29.98 "Hg10 mi
10:53 am61 °FPassing clouds.No wind50%29.98 "Hg10 mi
9:53 am57 °FPassing clouds.No wind58%29.98 "Hg10 mi
8:53 am53 °FPassing clouds.7 mph69%29.97 "Hg10 mi
7:53 am49 °FPassing clouds.6 mph74%29.96 "Hg10 mi
Weather by CustomWeather, © 2019

See weather overview